Wind_Speed
12 10 9 4 2 1 5 4 5 7 8 12 11 18 17 15 5 4 3 29 26 22 25 17 16 16 13 10 9 7 6 6 5 4 5 5 5 4 4 5 5 6 6 7 6 7 6 8 10
13 11 4 3 0 3 2 6 11 10 7 7 14 13 12 7 8 6 10 30 23 18 19 25 12 14 12 9 9 8 7 5 6 5 5 5 4 3 3 2 4 4 3 4 4 6 7 3 5
13 6 2 1 2 2 3 11 9 7 2 4 7 12 6 6 12 5 14 18 20 22 16 20 25 17 19 7 7 7 7 7 6 5 4 3 3 3 2 2 2 2 1 1 2 4 7 5 6
6 2 3 1 1 3 8 8 9 7 3 8 17 12 7 18 5 9 13 18 21 25 23 17 18 16 16 14 8 9 7 5 7 6 5 2 3 2 1 1 2 2 2 1 2 6 7 6 7
4 3 1 2 6 3 8 7 6 6 5 7 9 7 6 11 12 13 17 20 24 25 24 23 21 19 22 16 12 11 12 9 5 6 6 5 4 4 4 3 3 3 3 3 5 4 6 7 7
3 1 2 5 7 5 6 2 1 7 8 9 10 7 6 10 12 14 17 20 22 23 22 23 23 19 23 23 17 11 7 8 8 7 5 6 6 7 6 5 4 4 4 4 5 5 5 6 8
3 2 3 5 7 4 6 3 4 5 10 8 7 6 8 15 13 12 16 18 21 23 23 24 23 22 20 23 24 16 9 7 10 5 6 7 6 8 8 7 6 5 6 6 6 5 6 7 6
3 2 1 4 7 4 4 4 7 11 6 3 11 4 4 8 11 12 17 20 23 26 27 27 25 24 22 22 28 25 15 11 8 6 4 4 7 8 10 10 9 8 7 7 8 8 9 6 6
3 2 2 4 4 6 5 5 7 10 9 8 7 9 9 11 13 17 17 24 26 28 29 29 28 27 25 24 25 26 25 18 14 12 9 7 7 6 7 10 13 11 11 10 11 11 10 9 9
2 1 5 6 6 5 5 5 8 6 11 9 12 12 13 15 17 19 21 21 25 28 29 29 28 29 27 25 25 26 26 26 23 20 19 16 11 9 7 8 8 13 13 13 12 13 13 13 11
3 3 2 7 7 8 5 4 5 4 5 7 9 9 12 16 18 19 20 21 21 22 25 28 29 29 29 28 27 27 27 28 27 25 25 20 17 16 13 9 8 10 14 18 17 17 18 18 15
1 4 5 3 3 3 3 7 5 9 7 9 10 11 13 14 16 17 18 19 21 24 25 26 28 28 28 27 27 25 27 28 29 29 27 27 24 21 19 17 15 11 12 17 19 21 22 21 19
2 5 2 6 0 3 4 9 8 8 9 12 13 13 12 13 16 17 17 18 19 23 24 26 26 27 26 26 25 25 28 26 25 28 28 28 28 27 25 22 18 17 15 13 17 21 23 22 21
3 3 2 5 4 3 2 5 5 7 9 9 10 9 11 13 14 15 16 18 19 20 22 23 25 26 25 25 24 24 25 24 25 25 26 29 28 28 28 27 24 22 21 19 19 21 24 26 26
2 2 8 7 4 3 4 6 4 12 10 9 9 8 9 13 14 15 14 15 16 18 19 22 21 25 24 25 24 23 24 23 24 25 25 28 28 30 30 29 28 29 27 23 22 22 23 31 29
3 1 3 1 4 3 3 2 8 10 10 8 8 8 8 11 14 13 14 14 16 17 19 19 20 23 23 23 22 22 22 22 22 23 25 29 28 30 30 30 31 29 31 27 26 24 24 22 31
4 4 6 3 1 4 7 2 7 9 9 9 8 8 9 8 14 12 12 13 15 16 18 20 22 24 23 23 22 22 22 22 22 21 23 27 27 30 30 28 29 31 31 30 30 27 24 24 22
2 3 2 1 4 4 6 9 9 10 9 9 9 8 8 9 8 10 11 12 13 15 16 18 20 22 23 24 24 24 25 23 23 22 25 24 26 29 30 28 30 30 32 30 30 31 30 25 20
3 3 6 6 6 2 7 8 8 14 9 9 9 8 8 9 11 9 9 11 12 14 16 17 18 20 22 24 26 27 28 25 24 22 25 24 28 27 27 27 29 30 29 30 28 27 30 32 25
2 3 5 4 5 3 7 12 11 12 10 9 10 9 9 8 8 9 9 10 12 13 14 16 17 18 19 20 19 18 19 18 19 24 25 25 28 28 25 26 26 27 28 28 27 26 24 20 21
2 3 2 2 8 7 7 11 11 5 10 9 8 9 8 7 8 8 9 10 10 12 13 13 14 15 16 17 18 20 18 20 23 27 27 28 27 25 25 27 26 24 24 25 25 24 23 22 24
3 4 4 1 3 3 5 6 5 13 10 8 7 7 8 8 6 8 7 7 8 9 9 11 12 14 13 16 17 17 17 19 21 23 25 27 26 24 27 25 25 24 23 24 24 22 22 20 25
2 1 1 2 1 5 5 2 3 11 8 8 9 9 9 8 7 8 7 4 5 7 8 10 11 12 13 14 14 15 17 17 20 23 24 26 25 25 26 24 26 25 26 24 23 25 23 21 21
7 2 4 3 2 2 9 8 4 4 5 8 7 9 9 8 7 7 6 3 4 5 7 9 10 11 12 13 13 14 16 19 21 22 23 23 25 27 24 25 25 26 26 26 27 27 26 23 22
2 1 2 3 1 6 5 3 8 3 4 7 8 9 9 8 6 7 5 3 3 5 7 8 9 11 12 13 13 14 15 17 19 21 21 24 25 26 27 27 28 27 28 29 28 28 28 26 24
5 3 4 6 3 2 4 7 5 3 5 5 5 9 9 8 6 6 5 1 3 5 7 9 10 12 12 13 15 15 15 17 19 21 23 24 24 25 28 29 29 30 29 30 29 29 28 27 26
5 3 1 2 2 2 5 5 1 3 2 3 2 3 5 5 5 6 5 2 1 4 6 9 11 12 13 14 15 16 16 18 20 23 24 24 25 25 27 29 30 31 31 30 30 30 30 29 28
2 4 4 1 2 6 5 6 5 3 5 6 6 8 8 6 6 6 5 1 2 4 7 8 10 12 13 14 15 16 19 19 21 23 24 25 26 27 29 30 30 31 32 31 31 31 30 30 30
2 2 1 2 3 5 3 5 6 9 8 9 10 11 9 8 7 7 5 1 2 5 7 9 11 13 14 15 18 19 20 21 22 23 24 26 27 28 29 30 32 32 32 32 32 32 32 32 31
2 3 6 4 6 5 3 17 5 8 5 5 4 4 3 5 4 6 3 3 1 5 9 11 13 15 16 17 18 19 20 22 22 23 25 26 28 29 30 31 32 33 33 33 33 33 33 33 33
Wind_Direction
332 330 308 278 26 192 268 67 66 98 75 61 46 85 92 45 0 81 311 6 10 29 45 49 17 33 30 22 19 23 20 30 2 18 42 55 75 91 97 86 70 80 99 104 98 106 86 94 108
347 338 251 293 97 247 42 111 68 63 64 86 81 101 48 63 10 59 43 358 6 23 42 38 28 8 24 38 25 11 12 8 8 10 31 51 70 80 111 100 111 96 93 126 147 143 120 111 134
330 304 338 234 232 14 46 79 88 84 31 354 112 48 51 2 63 37 4 357 6 27 31 33 31 43 32 39 56 33 10 355 357 357 22 21 28 40 54 123 141 170 186 348 183 159 156 155 157
331 225 296 74 194 40 79 69 105 114 100 75 109 81 85 42 50 15 29 23 22 22 30 28 35 40 27 34 38 41 31 2 336 339 329 360 13 9 331 250 208 208 230 257 172 147 167 181 175
236 271 225 253 68 65 51 63 330 94 64 64 82 80 80 36 56 43 36 31 29 26 25 29 29 28 27 27 32 13 15 8 346 329 323 326 342 346 333 303 235 234 230 214 173 188 194 204 198
303 202 266 176 106 88 83 38 326 86 82 51 88 99 74 51 40 48 42 36 31 29 29 28 30 28 27 23 25 25 5 3 352 334 324 311 311 309 312 308 278 248 236 232 221 207 219 214 196
292 314 360 84 111 143 109 285 0 95 56 32 337 88 110 43 35 55 48 39 32 31 33 30 28 29 32 25 23 20 19 5 18 17 334 304 302 296 303 301 289 272 251 242 243 247 234 238 209
294 300 187 40 166 105 93 57 35 33 57 35 350 53 84 17 41 50 47 40 32 30 30 28 28 29 31 23 25 24 14 15 21 19 11 322 297 306 294 295 286 275 261 249 256 256 255 240 228
299 297 174 60 48 100 116 119 48 58 79 51 53 64 82 50 50 49 40 34 30 28 24 26 26 28 29 23 23 22 23 17 21 18 19 12 354 320 296 290 284 277 278 267 259 254 250 244 231
3 343 37 18 26 91 103 50 123 111 114 101 93 77 72 58 50 48 40 36 32 26 21 23 27 27 28 25 29 18 22 25 20 17 16 16 7 349 323 285 298 284 277 270 263 260 254 245 239
358 40 106 51 16 337 114 76 38 14 82 42 103 86 69 64 51 51 42 36 32 29 28 23 25 28 29 25 27 24 16 20 20 17 14 11 8 6 357 352 304 294 285 274 262 254 251 249 238
193 69 9 105 14 306 103 91 69 39 84 88 88 84 72 66 57 48 46 38 32 28 25 26 24 29 29 25 31 23 23 21 14 14 13 13 9 4 0 355 347 336 296 284 271 264 258 250 243
336 93 65 99 142 36 80 43 111 102 107 106 100 82 70 66 67 54 50 42 37 32 24 24 19 29 28 29 29 23 22 24 20 13 10 11 11 7 2 357 347 337 321 309 292 266 257 257 247
44 53 88 131 171 153 199 145 134 134 137 123 106 95 84 74 66 58 48 40 37 32 27 26 19 24 26 28 30 26 19 23 18 17 11 12 8 5 3 359 356 346 338 317 306 291 272 246 247
98 262 176 193 123 77 300 148 164 135 149 136 122 112 97 86 74 66 55 49 40 36 31 31 24 25 25 24 24 25 17 26 14 13 5 9 6 5 1 358 356 352 345 338 324 294 283 258 244
235 149 207 87 154 135 197 179 131 150 156 154 140 128 112 91 79 67 56 51 44 40 36 32 26 29 28 26 25 23 18 27 12 15 360 6 1 2 359 360 353 350 347 346 339 335 297 311 249
183 251 201 152 131 141 186 177 158 170 186 160 162 140 125 111 82 68 61 53 46 42 36 31 25 27 24 25 25 22 18 23 11 14 1 5 356 358 357 357 349 348 349 349 347 331 335 311 316
94 264 6 336 161 193 225 253 170 181 183 178 155 140 125 98 85 76 68 62 54 49 42 35 29 25 20 20 18 16 14 15 9 7 357 2 354 356 355 352 347 347 346 346 347 342 328 321 316
3 302 284 316 74 322 254 269 252 184 181 177 150 147 127 113 107 88 78 68 60 48 42 35 31 26 17 18 14 8 3 1 3 355 354 355 351 355 354 347 346 346 344 341 345 344 340 333 333
322 293 278 287 59 17 279 272 266 173 176 170 153 145 128 131 118 102 83 66 56 47 38 32 29 23 16 15 10 2 0 353 351 346 353 351 350 348 349 346 344 343 340 340 343 344 343 327 341
242 247 339 327 347 262 297 278 237 194 124 76 75 104 101 118 117 103 85 66 51 42 32 27 24 20 12 8 5 359 360 354 351 349 345 344 344 347 341 340 340 339 339 335 336 340 338 329 325
244 11 89 65 19 261 49 288 169 146 119 132 138 133 141 127 119 111 86 60 51 39 28 24 18 14 8 6 3 0 355 344 338 336 334 335 340 337 336 337 336 334 335 331 330 329 329 329 318
125 34 60 156 205 24 216 182 271 126 164 166 167 168 142 131 125 124 104 76 56 34 22 13 7 5 359 357 357 352 343 338 331 332 332 331 331 330 333 332 330 330 329 326 324 323 321 317 308
133 171 207 190 152 290 216 176 248 176 182 148 147 147 141 138 141 131 130 101 53 25 14 4 360 355 350 349 347 343 337 333 330 329 328 327 324 324 325 326 326 323 322 321 318 316 312 309 302
246 249 343 333 329 230 0 226 254 190 87 141 152 153 147 142 163 158 130 77 30 13 5 359 350 348 344 341 339 336 331 327 323 322 322 321 319 319 318 320 319 318 316 314 313 310 307 304 298
183 167 163 248 246 306 185 242 253 112 77 31 96 142 143 161 172 157 130 105 16 360 352 348 345 340 338 334 332 329 326 323 319 316 315 312 310 310 311 312 311 311 310 309 308 305 302 300 296
146 190 203 21 344 22 236 289 323 62 66 67 68 122 174 173 164 156 149 156 27 357 343 343 339 335 333 332 329 325 322 319 316 314 311 308 306 307 307 307 307 306 305 304 304 301 298 296 294
90 161 65 4 227 244 258 259 225 186 216 204 211 214 212 189 158 162 154 145 331 332 338 336 334 329 326 328 324 321 319 318 315 314 309 308 306 307 305 305 304 303 302 301 300 298 295 294 291
148 227 233 120 191 208 272 255 193 150 173 196 216 209 194 186 168 153 156 192 319 324 331 332 330 329 327 323 321 321 320 316 315 312 309 308 306 305 303 302 301 300 299 298 296 294 294 291 289
52 193 154 160 256 224 231 264 184 122 128 156 205 161 118 120 120 122 164 241 325 325 328 326 329 328 325 320 319 318 315 313 311 309 307 306 304 303 301 300 298 297 296 295 293 292 290 289 289
Height
789 788 788 786 808 801 807 802 783 795 799 792 791 801 829 832 839 852 852 850 847 842 839 838 841 840 838 838 838 838 838 838 838 839 838 839 839 840 840 842 842 843 843 844 845 845 845 846 846
789 788 787 788 813 820 813 790 806 801 796 791 799 808 822 844 845 851 851 851 850 847 844 842 843 841 841 839 840 840 839 840 840 840 840 841 841 841 842 843 844 845 845 845 845 846 847 847 848
790 789 793 800 807 821 817 802 805 800 795 793 808 818 837 856 857 862 861 859 853 848 848 846 841 841 840 839 839 840 841 842 842 842 842 842 843 843 844 844 844 845 846 846 846 846 847 848 849
791 789 791 809 806 806 803 803 800 803 799 798 813 843 853 864 863 866 864 860 855 851 846 843 842 843 842 841 841 841 841 842 843 843 844 845 845 845 844 845 846 846 847 847 847 847 848 849 850
790 790 805 804 811 803 805 800 799 804 803 804 808 847 858 866 867 866 864 861 857 853 849 847 844 844 844 843 843 844 843 842 842 844 845 847 847 847 847 846 846 847 848 848 848 849 849 849 850
796 791 810 817 812 806 805 800 798 804 806 816 827 841 866 870 868 867 866 863 859 855 852 849 846 845 845 845 844 843 843 844 844 845 845 847 848 848 849 848 847 848 849 850 850 850 851 851 851
797 801 806 802 814 812 809 802 807 807 817 831 833 844 867 870 869 868 866 863 860 858 854 852 850 849 847 848 845 844 843 843 844 844 845 846 847 848 849 849 849 849 850 850 851 852 851 852 852
799 800 799 799 814 816 809 810 810 817 837 836 839 854 866 870 869 868 866 865 862 859 856 854 853 851 849 849 848 846 844 844 844 844 845 845 846 848 849 850 850 850 850 850 851 851 852 852 854
795 812 810 807 806 816 809 816 819 829 839 851 857 862 870 871 870 869 868 866 864 862 860 857 856 854 852 852 850 849 848 847 846 845 844 844 846 846 847 848 849 850 851 850 850 851 851 852 853
804 812 816 811 812 812 811 814 821 831 842 857 863 868 871 872 871 871 871 871 869 867 865 863 861 858 855 855 853 852 851 850 849 847 846 845 846 846 846 847 846 849 850 850 850 849 850 851 852
804 817 809 816 818 815 815 824 827 835 848 860 864 870 873 874 875 875 875 874 875 875 871 868 863 861 859 858 857 856 855 853 852 851 849 849 847 846 846 845 846 847 848 849 849 848 847 848 850
812 812 814 817 821 817 818 825 839 849 861 863 867 871 874 876 878 879 879 879 877 874 873 871 868 865 865 863 861 861 860 858 856 854 852 850 850 848 847 846 846 846 846 846 847 846 846 845 846
810 814 815 821 822 821 821 834 844 860 863 866 869 873 876 878 880 881 882 882 880 878 877 874 872 869 868 867 866 866 864 863 862 859 857 854 853 852 850 848 846 846 845 845 843 844 844 843 843
815 817 816 819 821 822 826 837 836 859 862 865 869 874 877 879 882 883 883 883 882 881 879 878 875 872 870 869 868 869 868 868 866 865 862 860 857 854 852 851 847 846 845 842 842 841 840 840 839
816 821 821 821 822 826 827 840 840 854 859 863 867 873 877 880 883 884 885 884 883 882 881 879 879 876 873 871 870 870 870 869 868 868 865 863 861 857 854 851 849 848 846 841 839 836 837 835 834
820 819 826 827 825 830 831 838 850 853 856 861 864 871 876 881 884 886 886 885 885 884 883 882 880 878 878 877 875 874 873 871 871 869 867 865 862 860 856 853 852 848 846 843 840 837 833 830 830
819 829 821 834 826 827 832 834 847 850 852 857 863 868 874 880 884 886 887 887 886 885 884 882 880 878 877 877 876 876 874 873 872 871 868 866 864 862 859 856 854 852 847 844 842 836 836 830 828
823 821 813 817 831 829 829 831 842 846 849 853 861 867 873 880 885 887 888 888 887 886 886 884 883 881 879 876 875 874 874 873 873 871 870 868 866 863 860 858 855 852 849 846 844 837 834 831 821
827 829 831 824 837 834 831 829 826 840 847 852 859 865 872 879 884 887 888 889 888 887 887 886 885 883 881 879 877 875 874 873 873 872 870 868 866 864 862 859 856 853 851 847 844 839 833 820 824
831 836 838 827 837 839 836 829 824 832 840 846 855 863 871 878 882 886 888 889 889 888 887 886 886 885 884 882 882 881 878 876 874 871 869 867 865 863 862 859 857 855 851 848 845 843 837 833 831
839 841 843 847 849 842 844 832 817 817 839 851 856 863 870 876 882 886 889 889 889 889 888 888 887 886 885 883 882 880 879 876 873 871 869 867 865 863 861 859 858 856 853 849 846 843 841 836 833
847 852 850 855 862 866 846 860 801 830 848 856 864 869 873 878 882 886 889 890 890 890 889 888 887 887 886 885 883 882 881 879 877 874 870 867 865 863 861 859 858 856 853 849 846 844 842 839 833
857 856 856 859 872 888 863 877 826 836 846 858 863 868 871 877 881 885 888 890 890 890 889 888 887 887 886 885 884 882 881 880 876 873 870 867 864 862 860 858 856 852 850 848 846 843 841 838 835
861 861 863 866 878 905 866 853 830 841 842 855 860 866 872 877 881 885 887 889 890 889 888 888 887 886 885 884 883 882 880 878 875 873 870 867 864 860 857 856 853 850 847 845 842 839 837 835 833
861 866 886 899 912 875 848 853 832 855 850 851 860 867 872 877 881 883 885 887 888 888 887 886 886 885 884 884 882 880 879 876 874 872 869 866 862 858 855 853 850 847 844 841 838 835 832 831 828
866 871 879 877 868 863 858 879 839 863 863 863 860 865 871 876 879 881 883 886 886 887 886 886 885 884 883 882 880 879 877 874 872 870 867 864 860 857 853 849 847 844 841 838 835 831 828 825 823
870 891 879 898 865 900 857 847 879 867 871 871 871 871 875 877 878 879 881 883 884 884 885 884 883 882 881 880 878 877 875 872 869 867 864 860 857 853 849 846 842 839 836 833 830 826 822 820 817
872 870 906 914 933 909 863 863 847 873 876 874 875 874 873 873 876 877 880 881 882 882 882 881 881 880 879 878 876 874 872 870 866 863 859 856 852 849 845 842 838 834 831 828 825 821 817 814 810
881 891 887 893 895 908 897 866 857 856 859 864 864 862 867 869 871 874 877 878 879 880 880 880 879 878 877 875 872 870 867 865 863 859 856 852 849 845 841 837 833 829 825 822 819 815 811 808 804
885 878 885 905 903 890 894 834 845 853 855 858 860 858 865 868 872 874 875 877 877 878 878 879 878 876 875 873 870 868 865 862 859 855 852 848 844 840 836 832 828 823 819 816 812 808 805 802 797